Weather in Krasnomylskoye

Russia / Kurgan Oblast     56°05′40″N   63°27′08″E
temp.,
°C
wind,
m/s
gust,
m/s
humid.,
%
clouds,
%
prec.,
mm/h
press.,
hPa
HPBL,
m
13 june, sun
sun1323:00+15se22630 0.0 102311
02:00+13s22655 0.0 102414
05:00+13sse336827 0.0 102432
08:00+19ssw35555 0.0 1024282
11:00+23s55426 0.0 10241401
14:00+24s453783 0.0 10241980
17:00+24s343992 0.0 10231919
20:00+21sse335925 0.0 102336
14 june, mon
mon1423:00+16sse33610 0.0 102335
02:00+15s35625 0.0 102356
05:00+14s4762100 0.0 1024105
08:00+20ssw5105511 0.0 1023328
11:00+25sw69399 0.0 1023905
14:00+27sw78355 0.0 10221743
17:00+27sw57425 0.0 10211623
20:00+23ssw496252 0.0 1020185
15 june, tue
tue1523:00+19ssw49625 0.0 1019127
02:00+17sw4959100 0.0 1019144
05:00+16sw4116282 0.0 1019181
08:00+20wsw4663100 0.3 1019219
11:00+25sw5746100 0.3 1018627
14:00+28wsw6740100 0.0 10171360
17:00+28wsw4645100 0.0 10161502
20:00+24sw3662100 0.0 101595
16 june, wed
wed1623:00+20w47715 0.0 1015102
02:00+17nw337822 0.0 101542
05:00+17nnw1179100 0.0 101511
08:00+22w2265100 0.0 1016259
11:00+26wsw2353100 0.0 1015711
14:00+29wsw4443100 0.0 10141741
17:00+28w1346100 0.0 1013905
20:00+21nne5973100 0.3 1013194
17 june, thu
thu1723:00+18se3491100 6.3 101373
02:00+17s35927 0.1 101280
05:00+17w33915 0.1 101259
08:00+22w34715 0.0 1011273
11:00+27sw345032 0.0 1010865
14:00+29sw344275 0.0 10081253
17:00+30ssw464388 0.0 10051800
20:00+19nne698016 0.2 1004192